星链-5786 (STARLINK-5786 )

导读 | 豆包AI

STARLINK-5786是美国太空探索技术公司(SpaceX)星链(Starlink)卫星互联网项目中的卫星,于2023年3月24日发射升空,归属发射国家美国。它属于星链星座组网卫星,星链项目旨在构建全球卫星互联网星座,为全球多个区域提供高速网络服务,该卫星是星链大规模部署进程中的组成单元。

基本信息
目录编号:
56032
目录名称:
STARLINK-5786
国际标识:
2023-042AY
轨道中心:
EARTH
卫星名称:
星链-5786
卫星全名:
星链-5786 (STARLINK-5786 )
卫星状态:
在轨 (已飞行1133 天)
发射日期:
2023-03-24 UTC
国别 :
美国 (US)
星等 :
--
轨道信息
数据来源 国际轨道数据
星历时间: 2026-04-30T08:14:50+0800
10小时前
查看轨道信息
半长轴: 6863.694km
偏心率: 0.0001229
轨道倾角: 43.001°
近地点辐角 274.656°
升交点赤经 115.438°
平近点角 85.415°
近地点: 484.713km
远地点: 486.401km
周期: 94.318分钟
每日圈数: 15.267429
详细信息
固有亮度:
5
最大亮度:
2.5
卫星平台:
Starlink v1.5
覆盖范围:
全球
运营商:
太空探索技术公司
运营商所在国:
美国
制造商(研发单位):
太空探索技术公司
制造商所在国:
美国
使用方式:
暂无
卫星简介
星链(Starlink)计划是由太空探索技术公司(SpaceX)提出的一个巨型低轨卫星互联网星座项目,计划在2019年至2024年间在太空搭建由约1.2万颗卫星组成的“星链”网络,其中1584颗将部署在地球上空550千米处的近地轨道,并从2020年开始工作。该卫星仍在工作。
2D轨道图
3D轨道图
轨道高度分析图
轨道倾角分析图
轨道综合分析图
查看轨道综合分析图